Flag for Canada Weather past 2 weeks in Edmonton, Alberta, Canada

Now
79 °F

Pleasantly warm.


Feels Like: 78 °F
Forecast: 52 / 81 °F
Wind: 7 mph from Southeast

Location: Edmonton Municipal

Current Time: May 24, 2015 at 1:41:47 PM

Latest Report: May 24, 2015 at 1:00 PM


Visibility: N/A

Pressure: 29.95 "Hg

Humidity: 14%

Dew point: 26 °F

Location of EdmontonLocation

Historic Weather in Edmonton — Graph

°F

Edmonton temperature yesterday

Maximum temperature yesterday: 80 °F (at 4:00 PM)
Minimum temperature yesterday: 49 °F (at 5:00 AM)
Average temperature yesterday: 68 °F

Past Weeks' High & Low Weather Summary

 TemperatureHumidityPressure
High80 °F (May 23, 4:00 PM)87% (May 16, 8:00 AM)30.51 "Hg (May 16, 8:00 AM)
Low31 °F (May 17, 5:00 AM)11% (May 22, 5:00 PM)29.84 "Hg (May 15, 8:00 PM)
Average56 °F33%30.15 "Hg
* Reported May 9 12:00 Noon — May 24 12:00 Noon, Edmonton, Weather by CustomWeather, © 2015

Note: Actual official high and low records may vary slightly from our data, if they occured in-between our weather recording intervals... More about our weather records

Advertising

Edmonton weather history for previous 24 hours

 ConditionsComfort  
Time TempWeatherWind HumidityBarometerVisibility
12:00 PM
Sun, May 24
79 °FPleasantly warm.6 mph15%29.98 "HgN/A
11:00 AM77 °FMild.6 mph19%29.99 "HgN/A
10:00 AM71 °FMild.5 mph24%30.00 "HgN/A
9:00 AM67 °FMild.5 mph29%30.01 "HgN/A
8:00 AM62 °FRefreshingly cool.7 mph36%30.03 "HgN/A
7:00 AM54 °FCool.3 mph51%30.05 "HgN/A
6:00 AM52 °FCool.3 mph56%30.05 "HgN/A
5:00 AM52 °FCool.2 mph54%30.04 "HgN/A
4:00 AM52 °FCool.3 mph52%30.04 "HgN/A
3:00 AM56 °FRefreshingly cool.5 mph44%30.04 "HgN/A
2:00 AM61 °FRefreshingly cool.7 mph35%30.04 "HgN/A
1:00 AM63 °FMild.6 mph32%30.05 "HgN/A
12:00 AM62 °FRefreshingly cool.6 mph35%30.06 "HgN/A
11:00 PM
Sat, May 23
67 °FMild.8 mph27%30.05 "HgN/A
10:00 PM69 °FMild.7 mph23%30.05 "HgN/A
9:00 PM73 °FMild.7 mph19%30.04 "HgN/A
8:00 PM76 °FMild.10 mph16%30.05 "HgN/A
7:00 PM76 °FMild.9 mph15%30.07 "HgN/A
6:00 PM80 °FPleasantly warm.7 mph12%30.07 "HgN/A
5:00 PM80 °FPleasantly warm.3 mph11%30.09 "HgN/A
4:00 PM80 °FPleasantly warm.12 mph13%30.10 "HgN/A
3:00 PM78 °FPleasantly warm.5 mph14%30.11 "HgN/A
2:00 PM80 °FPleasantly warm.5 mph13%30.11 "HgN/A
1:00 PM79 °FPleasantly warm.8 mph12%30.11 "HgN/A
Weather by CustomWeather, © 2015

See weather overviewHow to use our weather pages